This is the latest recevied weather packets stored in our database for station/object N3OZD-10. If no packets are shown the sender has not sent any weather packets the latest 10 day(s).
| Time | Temp. | Humidity | Pressure | Rain* | Wind** | Luminosity | Snow |
|---|---|---|---|---|---|---|---|
| 1777570956 | 17.78° C | 49% | 1007.6 hPa | 1.02 mm | - | - | - |
| 1777570654 | 17.78° C | 50% | 1007.7 hPa | 0.76 mm | - | - | - |
| 1777570356 | 17.22° C | 55% | 1007.7 hPa | 0.51 mm | - | - | - |
| 1777570055 | 17.22° C | 47% | 1007.9 hPa | 0 mm | - | - | - |
| 1777569755 | 17.78° C | 46% | 1007.9 hPa | 0 mm | - | - | - |
| 1777569459 | 18.33° C | 53% | 1007.9 hPa | 0 mm | - | - | - |
| 1777569154 | 17.78° C | 51% | 1007.7 hPa | 0 mm | - | - | - |
| 1777568854 | 17.22° C | 48% | 1008 hPa | 0 mm | - | - | - |
| 1777568554 | 17.78° C | 48% | 1008 hPa | 0 mm | - | - | - |
| 1777568254 | 18.33° C | 51% | 1008 hPa | 0 mm | - | - | - |
| 1777567954 | 17.78° C | 52% | 1008 hPa | 0 mm | - | - | - |
| 1777567656 | 17.78° C | 52% | 1008.1 hPa | 0 mm | - | - | - |
| 1777567357 | 17.78° C | 51% | 1008.1 hPa | 0 mm | - | - | - |
| 1777567054 | 17.78° C | 54% | 1008.1 hPa | 0 mm | - | - | - |
| 1777566754 | 17.22° C | 52% | 1008.1 hPa | 0 mm | - | - | - |
| 1777566454 | 17.22° C | 49% | 1008.2 hPa | 0 mm | - | - | - |
| 1777566155 | 17.22° C | 58% | 1008.2 hPa | 0 mm | - | - | - |
| 1777565854 | 16.67° C | 60% | 1008.1 hPa | 0 mm | - | - | - |
| 1777565554 | 16.67° C | 55% | 1008.2 hPa | 0 mm | - | - | - |
| 1777565256 | 16.67° C | 52% | 1008.2 hPa | 0 mm | - | - | - |
| 1777564956 | 17.22° C | 60% | 1008.3 hPa | 0 mm | - | - | - |
| 1777564655 | 17.22° C | 62% | 1008.3 hPa | 0 mm | - | - | - |
| 1777564361 | 17.22° C | 59% | 1008.3 hPa | 0 mm | - | - | - |
| 1777564054 | 17.22° C | 59% | 1008.3 hPa | 0 mm | - | - | - |
| 1777563755 | 17.22° C | 56% | 1008.4 hPa | 0 mm | - | - | - |
* Rain latest hour (hover to see other rain measurements)
** Current wind speed in m/s (hover to see current wind gust speed)